Time,TemperatureF,DewpointF,PressureIn,WindDirection,WindDirectionDegrees,WindSpeedMPH,WindSpeedGustMPH,Humidity,HourlyPrecipIn,Conditions,Clouds,dailyrainin,SoftwareType,DateUTC
2013-02-16 00:02:00,26.0,26.0,27.29,East,90,0.0,0.0,100,0.00,,,0.00,Rainwise IP-100,2013-02-16 07:02:00,
2013-02-16 00:07:00,26.0,26.0,27.29,East,90,0.0,0.0,100,0.00,,,0.00,Rainwise IP-100,2013-02-16 07:07:00,
2013-02-16 00:12:00,26.0,26.0,27.29,East,90,0.0,0.0,99,0.00,,,0.00,Rainwise IP-100,2013-02-16 07:12:00,
2013-02-16 00:15:00,26.0,26.0,27.29,East,90,0.0,0.0,99,0.00,,,0.00,Rainwise IP-100,2013-02-16 07:15:00,
2013-02-16 00:16:00,26.0,26.0,27.29,East,90,0.0,0.0,99,0.00,,,0.00,Rainwise IP-100,2013-02-16 07:16:00,
2013-02-16 00:21:00,25.0,26.0,27.29,East,90,0.0,0.0,100,0.00,,,0.00,Rainwise IP-100,2013-02-16 07:21:00,
2013-02-16 00:26:00,25.0,26.0,27.29,East,90,0.0,0.0,100,0.00,,,0.00,Rainwise IP-100,2013-02-16 07:26:00,
2013-02-16 00:31:00,25.0,26.0,27.29,East,90,0.0,0.0,100,0.00,,,0.00,Rainwise IP-100,2013-02-16 07:31:00,
2013-02-16 00:36:00,25.0,26.0,27.29,East,90,2.0,2.0,100,0.00,,,0.00,Rainwise IP-100,2013-02-16 07:36:00,
2013-02-16 00:41:00,26.0,26.0,27.28,East,90,0.0,2.0,100,0.00,,,0.00,Rainwise IP-100,2013-02-16 07:41:00,
2013-02-16 00:46:00,25.0,26.0,27.28,East,90,0.0,0.0,100,0.00,,,0.00,Rainwise IP-100,2013-02-16 07:46:00,
2013-02-16 00:51:00,25.0,26.0,27.29,East,90,0.0,0.0,100,0.00,,,0.00,Rainwise IP-100,2013-02-16 07:51:00,
2013-02-16 00:56:00,25.0,26.0,27.29,East,90,0.0,0.0,100,0.00,,,0.00,Rainwise IP-100,2013-02-16 07:56:00,
2013-02-16 01:01:00,25.0,26.0,27.28,East,90,0.0,1.0,100,0.00,,,0.00,Rainwise IP-100,2013-02-16 08:01:00,
2013-02-16 01:06:00,25.0,26.0,27.28,SSE,157,0.0,0.0,100,0.00,,,0.00,Rainwise IP-100,2013-02-16 08:06:00,
2013-02-16 01:11:00,26.0,26.0,27.27,SSE,157,0.0,0.0,100,0.00,,,0.00,Rainwise IP-100,2013-02-16 08:11:00,
2013-02-16 01:16:00,25.0,26.0,27.27,SSE,157,0.0,0.0,100,0.00,,,0.00,Rainwise IP-100,2013-02-16 08:16:00,
2013-02-16 01:21:00,25.0,26.0,27.28,SSE,157,0.0,0.0,100,0.00,,,0.00,Rainwise IP-100,2013-02-16 08:21:00,
2013-02-16 01:26:00,25.0,26.0,27.28,SSE,157,0.0,0.0,100,0.00,,,0.00,Rainwise IP-100,2013-02-16 08:26:00,
2013-02-16 01:31:00,25.0,26.0,27.28,WSW,247,0.0,1.0,100,0.00,,,0.00,Rainwise IP-100,2013-02-16 08:31:00,
2013-02-16 01:36:00,25.0,26.0,27.28,NW,315,0.0,1.0,100,0.00,,,0.00,Rainwise IP-100,2013-02-16 08:36:00,
2013-02-16 01:41:00,25.0,26.0,27.27,NNW,337,0.0,2.0,100,0.00,,,0.00,Rainwise IP-100,2013-02-16 08:41:00,
2013-02-16 01:46:00,26.0,26.0,27.27,ENE,67,2.0,5.0,100,0.00,,,0.00,Rainwise IP-100,2013-02-16 08:46:00,
2013-02-16 01:51:00,26.0,26.0,27.27,ENE,67,0.0,2.0,100,0.00,,,0.00,Rainwise IP-100,2013-02-16 08:51:00,
2013-02-16 01:56:00,25.0,26.0,27.27,ENE,67,0.0,0.0,100,0.00,,,0.00,Rainwise IP-100,2013-02-16 08:56:00,
2013-02-16 02:01:00,25.0,26.0,27.27,ENE,67,0.0,0.0,100,0.00,,,0.00,Rainwise IP-100,2013-02-16 09:01:00,
2013-02-16 02:06:00,25.0,26.0,27.27,ENE,67,0.0,0.0,100,0.00,,,0.00,Rainwise IP-100,2013-02-16 09:06:00,
2013-02-16 02:11:00,25.0,26.0,27.27,ENE,67,0.0,0.0,100,0.00,,,0.00,Rainwise IP-100,2013-02-16 09:11:00,
2013-02-16 02:16:00,25.0,26.0,27.27,ENE,67,1.0,0.0,100,0.00,,,0.00,Rainwise IP-100,2013-02-16 09:16:00,
2013-02-16 02:21:00,25.0,26.0,27.27,ENE,67,1.0,2.0,100,0.00,,,0.00,Rainwise IP-100,2013-02-16 09:21:00,
2013-02-16 02:26:00,26.0,26.0,27.27,South,180,2.0,7.0,100,0.00,,,0.00,Rainwise IP-100,2013-02-16 09:26:00,
2013-02-16 02:31:00,26.0,26.0,27.27,West,270,2.0,3.0,100,0.00,,,0.00,Rainwise IP-100,2013-02-16 09:31:00,
2013-02-16 02:36:00,25.0,26.0,27.27,West,270,0.0,4.0,100,0.00,,,0.00,Rainwise IP-100,2013-02-16 09:36:00,
2013-02-16 02:41:00,25.0,26.0,27.27,SSE,157,2.0,4.0,100,0.00,,,0.00,Rainwise IP-100,2013-02-16 09:41:00,
2013-02-16 02:46:00,25.0,26.0,27.27,SSE,157,2.0,3.0,100,0.00,,,0.00,Rainwise IP-100,2013-02-16 09:46:00,
2013-02-16 02:51:00,25.0,26.0,27.26,SSE,157,0.0,3.0,100,0.00,,,0.00,Rainwise IP-100,2013-02-16 09:51:00,
2013-02-16 02:56:00,25.0,26.0,27.26,SSE,157,0.0,1.0,100,0.00,,,0.00,Rainwise IP-100,2013-02-16 09:56:00,
2013-02-16 02:59:00,25.0,26.0,27.26,SSE,157,0.0,0.0,100,0.00,,,0.00,Rainwise IP-100,2013-02-16 09:59:00,
2013-02-16 03:04:00,24.0,24.0,27.26,SSE,157,0.0,0.0,100,0.00,,,0.00,Rainwise IP-100,2013-02-16 10:04:00,
2013-02-16 03:09:00,24.0,24.0,27.27,SSE,157,0.0,0.0,100,0.00,,,0.00,Rainwise IP-100,2013-02-16 10:09:00,
2013-02-16 03:14:00,24.0,24.0,27.27,SSE,157,2.0,2.0,100,0.00,,,0.00,Rainwise IP-100,2013-02-16 10:14:00,
2013-02-16 03:19:00,25.0,26.0,27.26,SSE,157,0.0,2.0,100,0.00,,,0.00,Rainwise IP-100,2013-02-16 10:19:00,
2013-02-16 03:24:00,26.0,26.0,27.26,ESE,112,2.0,5.0,100,0.00,,,0.00,Rainwise IP-100,2013-02-16 10:24:00,
2013-02-16 03:29:00,26.0,26.0,27.25,ESE,112,2.0,5.0,100,0.00,,,0.00,Rainwise IP-100,2013-02-16 10:29:00,
2013-02-16 03:34:00,26.0,26.0,27.25,ESE,112,1.0,3.0,100,0.00,,,0.00,Rainwise IP-100,2013-02-16 10:34:00,
2013-02-16 03:39:00,25.0,26.0,27.25,ESE,112,0.0,1.0,100,0.00,,,0.00,Rainwise IP-100,2013-02-16 10:39:00,
2013-02-16 03:44:00,25.0,26.0,27.25,ESE,112,1.0,1.0,100,0.00,,,0.00,Rainwise IP-100,2013-02-16 10:44:00,
2013-02-16 03:49:00,25.0,26.0,27.25,ESE,112,0.0,3.0,100,0.00,,,0.00,Rainwise IP-100,2013-02-16 10:49:00,
2013-02-16 03:54:00,24.0,24.0,27.25,ESE,112,0.0,0.0,100,0.00,,,0.00,Rainwise IP-100,2013-02-16 10:54:00,
2013-02-16 03:59:00,24.0,24.0,27.25,ESE,112,0.0,0.0,100,0.00,,,0.00,Rainwise IP-100,2013-02-16 10:59:00,
2013-02-16 04:04:00,24.0,24.0,27.26,ESE,112,0.0,0.0,100,0.00,,,0.00,Rainwise IP-100,2013-02-16 11:04:00,
2013-02-16 04:09:00,23.0,23.0,27.26,ESE,112,0.0,0.0,100,0.00,,,0.00,Rainwise IP-100,2013-02-16 11:09:00,
2013-02-16 04:14:00,23.0,23.0,27.26,ESE,112,0.0,0.0,100,0.00,,,0.00,Rainwise IP-100,2013-02-16 11:14:00,
2013-02-16 04:19:00,23.0,23.0,27.26,ESE,112,0.0,0.0,100,0.00,,,0.00,Rainwise IP-100,2013-02-16 11:19:00,
2013-02-16 04:24:00,23.0,23.0,27.26,ESE,112,0.0,0.0,100,0.00,,,0.00,Rainwise IP-100,2013-02-16 11:24:00,
2013-02-16 04:29:00,23.0,23.0,27.26,ESE,112,0.0,0.0,100,0.00,,,0.00,Rainwise IP-100,2013-02-16 11:29:00,
2013-02-16 04:34:00,22.0,23.0,27.26,ESE,112,0.0,0.0,100,0.00,,,0.00,Rainwise IP-100,2013-02-16 11:34:00,
2013-02-16 04:39:00,22.0,23.0,27.26,ESE,112,0.0,0.0,100,0.00,,,0.00,Rainwise IP-100,2013-02-16 11:39:00,
2013-02-16 04:44:00,22.0,23.0,27.26,ESE,112,0.0,0.0,100,0.00,,,0.00,Rainwise IP-100,2013-02-16 11:44:00,
2013-02-16 04:49:00,22.0,23.0,27.26,ESE,112,0.0,0.0,100,0.00,,,0.00,Rainwise IP-100,2013-02-16 11:49:00,
2013-02-16 04:54:00,22.0,23.0,27.26,ESE,112,1.0,2.0,100,0.00,,,0.00,Rainwise IP-100,2013-02-16 11:54:00,
2013-02-16 04:59:00,23.0,23.0,27.26,ESE,112,2.0,2.0,100,0.00,,,0.00,Rainwise IP-100,2013-02-16 11:59:00,
2013-02-16 05:04:00,23.0,23.0,27.25,ESE,112,0.0,2.0,100,0.00,,,0.00,Rainwise IP-100,2013-02-16 12:04:00,
2013-02-16 05:09:00,22.0,23.0,27.25,ESE,112,0.0,0.0,100,0.00,,,0.00,Rainwise IP-100,2013-02-16 12:09:00,
2013-02-16 05:14:00,22.0,23.0,27.25,ESE,112,0.0,0.0,100,0.00,,,0.00,Rainwise IP-100,2013-02-16 12:14:00,
2013-02-16 05:19:00,22.0,23.0,27.25,ESE,112,0.0,0.0,100,0.00,,,0.00,Rainwise IP-100,2013-02-16 12:19:00,
2013-02-16 05:24:00,22.0,23.0,27.25,ESE,112,0.0,0.0,100,0.00,,,0.00,Rainwise IP-100,2013-02-16 12:24:00,
2013-02-16 05:29:00,22.0,23.0,27.25,ESE,112,0.0,1.0,100,0.00,,,0.00,Rainwise IP-100,2013-02-16 12:29:00,
2013-02-16 05:34:00,22.0,23.0,27.25,ESE,112,0.0,0.0,100,0.00,,,0.00,Rainwise IP-100,2013-02-16 12:34:00,
2013-02-16 05:39:00,22.0,23.0,27.25,ESE,112,0.0,0.0,100,0.00,,,0.00,Rainwise IP-100,2013-02-16 12:39:00,
2013-02-16 05:44:00,21.0,21.0,27.25,ESE,112,0.0,0.0,100,0.00,,,0.00,Rainwise IP-100,2013-02-16 12:44:00,
2013-02-16 05:49:00,21.0,21.0,27.25,ESE,112,2.0,2.0,100,0.00,,,0.00,Rainwise IP-100,2013-02-16 12:49:00,
2013-02-16 05:54:00,22.0,23.0,27.25,ESE,112,0.0,2.0,100,0.00,,,0.00,Rainwise IP-100,2013-02-16 12:54:00,
2013-02-16 05:59:00,22.0,23.0,27.25,ESE,112,0.0,1.0,100,0.00,,,0.00,Rainwise IP-100,2013-02-16 12:59:00,
2013-02-16 06:04:00,22.0,23.0,27.24,ESE,112,0.0,0.0,100,0.00,,,0.00,Rainwise IP-100,2013-02-16 13:04:00,
2013-02-16 06:09:00,22.0,23.0,27.24,ESE,112,0.0,0.0,100,0.00,,,0.00,Rainwise IP-100,2013-02-16 13:09:00,
2013-02-16 06:14:00,21.0,21.0,27.24,ESE,112,0.0,0.0,100,0.00,,,0.00,Rainwise IP-100,2013-02-16 13:14:00,
2013-02-16 06:19:00,21.0,21.0,27.24,ESE,112,0.0,0.0,100,0.00,,,0.00,Rainwise IP-100,2013-02-16 13:19:00,
2013-02-16 06:24:00,21.0,21.0,27.24,ESE,112,0.0,0.0,100,0.00,,,0.00,Rainwise IP-100,2013-02-16 13:24:00,
2013-02-16 06:29:00,21.0,21.0,27.24,ESE,112,0.0,0.0,100,0.00,,,0.00,Rainwise IP-100,2013-02-16 13:29:00,
2013-02-16 06:34:00,21.0,21.0,27.24,ESE,112,0.0,2.0,100,0.00,,,0.00,Rainwise IP-100,2013-02-16 13:34:00,
2013-02-16 06:39:00,21.0,21.0,27.24,ESE,112,0.0,0.0,100,0.00,,,0.00,Rainwise IP-100,2013-02-16 13:39:00,
2013-02-16 06:44:00,21.0,21.0,27.23,ESE,112,0.0,0.0,100,0.00,,,0.00,Rainwise IP-100,2013-02-16 13:44:00,
2013-02-16 06:49:00,21.0,21.0,27.23,ESE,112,0.0,0.0,100,0.00,,,0.00,Rainwise IP-100,2013-02-16 13:49:00,
2013-02-16 06:54:00,21.0,21.0,27.23,ESE,112,0.0,0.0,100,0.00,,,0.00,Rainwise IP-100,2013-02-16 13:54:00,
2013-02-16 06:59:00,21.0,21.0,27.23,ESE,112,0.0,0.0,100,0.00,,,0.00,Rainwise IP-100,2013-02-16 13:59:00,
2013-02-16 07:04:00,21.0,21.0,27.23,ESE,112,0.0,1.0,100,0.00,,,0.00,Rainwise IP-100,2013-02-16 14:04:00,
2013-02-16 07:09:00,21.0,21.0,27.23,East,90,2.0,2.0,100,0.00,,,0.00,Rainwise IP-100,2013-02-16 14:09:00,
2013-02-16 07:14:00,21.0,21.0,27.23,East,90,0.0,3.0,100,0.00,,,0.00,Rainwise IP-100,2013-02-16 14:14:00,
2013-02-16 07:19:00,21.0,21.0,27.23,East,90,0.0,0.0,100,0.00,,,0.00,Rainwise IP-100,2013-02-16 14:19:00,
2013-02-16 07:24:00,21.0,21.0,27.23,East,90,0.0,0.0,100,0.00,,,0.00,Rainwise IP-100,2013-02-16 14:24:00,
2013-02-16 07:29:00,21.0,21.0,27.23,East,90,2.0,2.0,100,0.00,,,0.00,Rainwise IP-100,2013-02-16 14:29:00,
2013-02-16 07:34:00,22.0,23.0,27.22,WSW,247,0.0,3.0,100,0.00,,,0.00,Rainwise IP-100,2013-02-16 14:34:00,
2013-02-16 07:39:00,21.0,21.0,27.22,WSW,247,0.0,0.0,100,0.00,,,0.00,Rainwise IP-100,2013-02-16 14:39:00,
2013-02-16 07:44:00,21.0,21.0,27.22,WSW,247,0.0,0.0,100,0.00,,,0.00,Rainwise IP-100,2013-02-16 14:44:00,
2013-02-16 07:49:00,21.0,21.0,27.22,WSW,247,0.0,0.0,100,0.00,,,0.00,Rainwise IP-100,2013-02-16 14:49:00,
2013-02-16 07:54:00,21.0,21.0,27.22,WSW,247,0.0,0.0,100,0.00,,,0.00,Rainwise IP-100,2013-02-16 14:54:00,
2013-02-16 07:59:00,21.0,21.0,27.22,WSW,247,0.0,0.0,100,0.00,,,0.00,Rainwise IP-100,2013-02-16 14:59:00,
2013-02-16 08:04:00,21.0,21.0,27.22,WSW,247,0.0,0.0,100,0.00,,,0.00,Rainwise IP-100,2013-02-16 15:04:00,
2013-02-16 08:09:00,21.0,21.0,27.22,WSW,247,0.0,0.0,100,0.00,,,0.00,Rainwise IP-100,2013-02-16 15:09:00,
2013-02-16 08:14:00,22.0,23.0,27.22,WSW,247,0.0,3.0,100,0.00,,,0.00,Rainwise IP-100,2013-02-16 15:14:00,
2013-02-16 08:19:00,22.0,23.0,27.22,WSW,247,0.0,1.0,100,0.00,,,0.00,Rainwise IP-100,2013-02-16 15:19:00,
2013-02-16 08:24:00,22.0,23.0,27.21,WSW,247,0.0,0.0,100,0.00,,,0.00,Rainwise IP-100,2013-02-16 15:24:00,
2013-02-16 08:29:00,22.0,23.0,27.21,WSW,247,0.0,2.0,100,0.00,,,0.00,Rainwise IP-100,2013-02-16 15:29:00,
2013-02-16 08:34:00,23.0,23.0,27.21,WSW,247,0.0,0.0,100,0.00,,,0.00,Rainwise IP-100,2013-02-16 15:34:00,
2013-02-16 08:39:00,23.0,23.0,27.21,WSW,247,2.0,2.0,100,0.00,,,0.00,Rainwise IP-100,2013-02-16 15:39:00,
2013-02-16 08:44:00,24.0,24.0,27.21,WSW,247,0.0,2.0,100,0.00,,,0.00,Rainwise IP-100,2013-02-16 15:44:00,
2013-02-16 08:49:00,24.0,24.0,27.21,WSW,247,0.0,0.0,100,0.00,,,0.00,Rainwise IP-100,2013-02-16 15:49:00,
2013-02-16 08:54:00,25.0,26.0,27.19,WSW,247,0.0,0.0,100,0.00,,,0.00,Rainwise IP-100,2013-02-16 15:54:00,
2013-02-16 08:59:00,26.0,26.0,27.19,WSW,247,0.0,0.0,100,0.00,,,0.00,Rainwise IP-100,2013-02-16 15:59:00,
2013-02-16 09:04:00,27.0,28.0,27.19,WSW,247,0.0,0.0,100,0.00,,,0.00,Rainwise IP-100,2013-02-16 16:04:00,
2013-02-16 09:09:00,27.0,28.0,27.19,WSW,247,0.0,0.0,100,0.00,,,0.00,Rainwise IP-100,2013-02-16 16:09:00,
2013-02-16 09:14:00,28.0,28.0,27.17,WSW,247,0.0,0.0,100,0.00,,,0.00,Rainwise IP-100,2013-02-16 16:14:00,
2013-02-16 09:19:00,28.0,28.0,27.17,West,270,0.0,0.0,100,0.00,,,0.00,Rainwise IP-100,2013-02-16 16:19:00,
2013-02-16 09:24:00,29.0,29.0,27.17,West,270,0.0,0.0,100,0.00,,,0.00,Rainwise IP-100,2013-02-16 16:24:00,
2013-02-16 09:29:00,30.0,31.0,27.17,West,270,0.0,0.0,100,0.00,,,0.00,Rainwise IP-100,2013-02-16 16:29:00,
2013-02-16 09:34:00,31.0,31.0,27.15,South,180,0.0,4.0,100,0.00,,,0.00,Rainwise IP-100,2013-02-16 16:34:00,
2013-02-16 09:39:00,32.0,32.0,27.15,South,180,0.0,2.0,100,0.00,,,0.00,Rainwise IP-100,2013-02-16 16:39:00,
2013-02-16 09:44:00,32.0,32.0,27.14,South,180,0.0,2.0,99,0.00,,,0.00,Rainwise IP-100,2013-02-16 16:44:00,
2013-02-16 09:49:00,33.0,33.0,27.14,South,180,0.0,0.0,98,0.00,,,0.00,Rainwise IP-100,2013-02-16 16:49:00,
2013-02-16 09:54:00,34.0,33.0,27.12,South,180,2.0,4.0,95,0.00,,,0.00,Rainwise IP-100,2013-02-16 16:54:00,
2013-02-16 09:59:00,34.0,33.0,27.12,ESE,112,0.0,3.0,97,0.00,,,0.00,Rainwise IP-100,2013-02-16 16:59:00,
2013-02-16 10:04:00,35.0,33.0,27.11,ESE,112,1.0,3.0,93,0.00,,,0.00,Rainwise IP-100,2013-02-16 17:04:00,
2013-02-16 10:09:00,35.0,33.0,27.11,ESE,112,2.0,2.0,96,0.00,,,0.00,Rainwise IP-100,2013-02-16 17:09:00,
2013-02-16 10:14:00,35.0,33.0,27.11,WNW,292,0.0,3.0,97,0.00,,,0.00,Rainwise IP-100,2013-02-16 17:14:00,
2013-02-16 10:19:00,34.0,32.0,27.11,NW,315,3.0,6.0,89,0.00,,,0.00,Rainwise IP-100,2013-02-16 17:19:00,
2013-02-16 10:24:00,34.0,33.0,27.11,NNW,337,2.0,6.0,97,0.00,,,0.00,Rainwise IP-100,2013-02-16 17:24:00,
2013-02-16 10:29:00,35.0,33.0,27.11,ENE,67,0.0,4.0,97,0.00,,,0.00,Rainwise IP-100,2013-02-16 17:29:00,
2013-02-16 10:34:00,36.0,35.0,27.10,ESE,112,0.0,3.0,95,0.00,,,0.00,Rainwise IP-100,2013-02-16 17:34:00,
2013-02-16 10:39:00,36.0,29.0,27.10,ESE,112,3.0,5.0,76,0.00,,,0.00,Rainwise IP-100,2013-02-16 17:39:00,
2013-02-16 10:44:00,36.0,32.0,27.09,ENE,67,6.0,6.0,84,0.00,,,0.00,Rainwise IP-100,2013-02-16 17:44:00,
2013-02-16 10:49:00,36.0,29.0,27.09,ESE,112,4.0,7.0,76,0.00,,,0.00,Rainwise IP-100,2013-02-16 17:49:00,
2013-02-16 10:54:00,35.0,29.0,27.09,North,360,2.0,7.0,81,0.00,,,0.00,Rainwise IP-100,2013-02-16 17:54:00,
2013-02-16 10:59:00,36.0,31.0,27.09,NE,45,5.0,7.0,81,0.00,,,0.00,Rainwise IP-100,2013-02-16 17:59:00,
2013-02-16 11:04:00,36.0,31.0,27.09,NNE,22,3.0,6.0,80,0.00,,,0.00,Rainwise IP-100,2013-02-16 18:04:00,
2013-02-16 11:09:00,36.0,31.0,27.09,North,360,0.0,6.0,81,0.00,,,0.00,Rainwise IP-100,2013-02-16 18:09:00,
2013-02-16 11:14:00,37.0,31.0,27.08,ENE,67,1.0,5.0,77,0.00,,,0.00,Rainwise IP-100,2013-02-16 18:14:00,
2013-02-16 11:19:00,37.0,32.0,27.08,NW,315,0.0,4.0,81,0.00,,,0.00,Rainwise IP-100,2013-02-16 18:19:00,
2013-02-16 11:24:00,38.0,31.0,27.07,East,90,4.0,6.0,73,0.00,,,0.00,Rainwise IP-100,2013-02-16 18:24:00,
2013-02-16 11:29:00,38.0,31.0,27.07,ENE,67,3.0,7.0,73,0.00,,,0.00,Rainwise IP-100,2013-02-16 18:29:00,
2013-02-16 11:34:00,38.0,29.0,27.06,SE,135,0.0,6.0,71,0.00,,,0.00,Rainwise IP-100,2013-02-16 18:34:00,
2013-02-16 11:39:00,39.0,29.0,27.06,North,360,5.0,6.0,68,0.00,,,0.00,Rainwise IP-100,2013-02-16 18:39:00,
2013-02-16 11:44:00,40.0,31.0,27.05,NNE,22,1.0,6.0,67,0.00,,,0.00,Rainwise IP-100,2013-02-16 18:44:00,
2013-02-16 11:49:00,40.0,31.0,27.05,ENE,67,3.0,6.0,66,0.00,,,0.00,Rainwise IP-100,2013-02-16 18:49:00,
2013-02-16 11:54:00,41.0,31.0,27.03,NW,315,5.0,7.0,67,0.00,,,0.00,Rainwise IP-100,2013-02-16 18:54:00,
2013-02-16 11:59:00,41.0,31.0,27.03,North,360,3.0,6.0,66,0.00,,,0.00,Rainwise IP-100,2013-02-16 18:59:00,
2013-02-16 12:04:00,40.0,31.0,27.02,WNW,292,4.0,6.0,68,0.00,,,0.00,Rainwise IP-100,2013-02-16 19:04:00,
2013-02-16 12:09:00,40.0,29.0,27.02,NNE,22,2.0,6.0,64,0.00,,,0.00,Rainwise IP-100,2013-02-16 19:09:00,
2013-02-16 12:14:00,40.0,31.0,27.02,NNW,337,1.0,6.0,67,0.00,,,0.00,Rainwise IP-100,2013-02-16 19:14:00,
2013-02-16 12:19:00,40.0,31.0,27.02,NNW,337,5.0,6.0,66,0.00,,,0.00,Rainwise IP-100,2013-02-16 19:19:00,
2013-02-16 12:24:00,40.0,31.0,27.02,NNW,337,2.0,6.0,67,0.00,,,0.00,Rainwise IP-100,2013-02-16 19:24:00,
2013-02-16 12:29:00,40.0,31.0,27.02,NNW,337,2.0,6.0,68,0.00,,,0.00,Rainwise IP-100,2013-02-16 19:29:00,
2013-02-16 12:34:00,40.0,31.0,27.01,North,360,1.0,6.0,66,0.00,,,0.00,Rainwise IP-100,2013-02-16 19:34:00,
2013-02-16 12:39:00,40.0,31.0,27.01,WNW,292,6.0,6.0,68,0.00,,,0.00,Rainwise IP-100,2013-02-16 19:39:00,
2013-02-16 12:44:00,40.0,31.0,27.00,NNW,337,2.0,6.0,66,0.00,,,0.00,Rainwise IP-100,2013-02-16 19:44:00,
2013-02-16 12:49:00,41.0,31.0,27.00,NW,315,5.0,6.0,67,0.00,,,0.00,Rainwise IP-100,2013-02-16 19:49:00,
2013-02-16 12:54:00,41.0,31.0,26.99,NE,45,4.0,7.0,64,0.00,,,0.00,Rainwise IP-100,2013-02-16 19:54:00,
2013-02-16 12:59:00,41.0,31.0,26.99,NNW,337,0.0,6.0,64,0.00,,,0.00,Rainwise IP-100,2013-02-16 19:59:00,
2013-02-16 13:04:00,40.0,29.0,26.98,NNE,22,3.0,6.0,65,0.00,,,0.00,Rainwise IP-100,2013-02-16 20:04:00,
2013-02-16 13:09:00,40.0,31.0,26.98,WNW,292,6.0,6.0,69,0.00,,,0.00,Rainwise IP-100,2013-02-16 20:09:00,
2013-02-16 13:14:00,39.0,31.0,26.98,WNW,292,2.0,7.0,69,0.00,,,0.00,Rainwise IP-100,2013-02-16 20:14:00,
2013-02-16 13:19:00,39.0,31.0,26.98,WNW,292,5.0,5.0,71,0.00,,,0.00,Rainwise IP-100,2013-02-16 20:19:00,
2013-02-16 13:24:00,39.0,31.0,26.98,West,270,1.0,7.0,71,0.00,,,0.00,Rainwise IP-100,2013-02-16 20:24:00,
2013-02-16 13:29:00,39.0,31.0,26.98,WNW,292,4.0,5.0,71,0.00,,,0.00,Rainwise IP-100,2013-02-16 20:29:00,
2013-02-16 13:34:00,39.0,32.0,26.98,NNW,337,4.0,7.0,73,0.00,,,0.00,Rainwise IP-100,2013-02-16 20:34:00,
2013-02-16 13:39:00,39.0,32.0,26.98,WNW,292,2.0,6.0,73,0.00,,,0.00,Rainwise IP-100,2013-02-16 20:39:00,
2013-02-16 13:44:00,39.0,31.0,26.97,NNW,337,4.0,6.0,72,0.00,,,0.00,Rainwise IP-100,2013-02-16 20:44:00,
2013-02-16 13:49:00,39.0,32.0,26.97,West,270,6.0,7.0,73,0.00,,,0.00,Rainwise IP-100,2013-02-16 20:49:00,
2013-02-16 13:54:00,39.0,32.0,26.97,West,270,6.0,6.0,73,0.00,,,0.00,Rainwise IP-100,2013-02-16 20:54:00,
2013-02-16 13:59:00,39.0,31.0,26.97,WNW,292,6.0,6.0,72,0.00,,,0.00,Rainwise IP-100,2013-02-16 20:59:00,
2013-02-16 14:04:00,40.0,32.0,26.95,West,270,4.0,7.0,70,0.00,,,0.00,Rainwise IP-100,2013-02-16 21:04:00,
2013-02-16 14:09:00,40.0,31.0,26.95,NNE,22,1.0,5.0,68,0.00,,,0.00,Rainwise IP-100,2013-02-16 21:09:00,
2013-02-16 14:14:00,41.0,32.0,26.94,WNW,292,0.0,6.0,68,0.00,,,0.00,Rainwise IP-100,2013-02-16 21:14:00,
2013-02-16 14:19:00,41.0,32.0,26.94,WNW,292,2.0,5.0,68,0.00,,,0.00,Rainwise IP-100,2013-02-16 21:19:00,
2013-02-16 14:24:00,42.0,32.0,26.93,NW,315,2.0,4.0,68,0.00,,,0.00,Rainwise IP-100,2013-02-16 21:24:00,
2013-02-16 14:29:00,42.0,32.0,26.93,WNW,292,4.0,5.0,66,0.00,,,0.00,Rainwise IP-100,2013-02-16 21:29:00,
2013-02-16 14:34:00,42.0,32.0,26.92,WNW,292,3.0,5.0,66,0.00,,,0.00,Rainwise IP-100,2013-02-16 21:34:00,
2013-02-16 14:39:00,41.0,32.0,26.92,WNW,292,4.0,7.0,68,0.00,,,0.00,Rainwise IP-100,2013-02-16 21:39:00,
2013-02-16 14:44:00,41.0,32.0,26.92,NW,315,3.0,7.0,68,0.00,,,0.00,Rainwise IP-100,2013-02-16 21:44:00,
2013-02-16 14:49:00,41.0,32.0,26.92,West,270,3.0,7.0,68,0.00,,,0.00,Rainwise IP-100,2013-02-16 21:49:00,
2013-02-16 14:54:00,41.0,32.0,26.92,North,360,1.0,6.0,68,0.00,,,0.00,Rainwise IP-100,2013-02-16 21:54:00,
2013-02-16 14:59:00,40.0,31.0,26.92,NNW,337,4.0,7.0,69,0.00,,,0.00,Rainwise IP-100,2013-02-16 21:59:00,
2013-02-16 15:04:00,40.0,31.0,26.91,WNW,292,3.0,6.0,68,0.00,,,0.00,Rainwise IP-100,2013-02-16 22:04:00,
2013-02-16 15:09:00,40.0,31.0,26.91,NE,45,2.0,6.0,67,0.00,,,0.00,Rainwise IP-100,2013-02-16 22:09:00,
2013-02-16 15:14:00,40.0,31.0,26.91,NW,315,2.0,6.0,68,0.00,,,0.00,Rainwise IP-100,2013-02-16 22:14:00,
2013-02-16 15:19:00,41.0,31.0,26.91,NNW,337,0.0,5.0,67,0.00,,,0.00,Rainwise IP-100,2013-02-16 22:19:00,
2013-02-16 15:24:00,40.0,31.0,26.91,WNW,292,4.0,6.0,67,0.00,,,0.00,Rainwise IP-100,2013-02-16 22:24:00,
2013-02-16 15:29:00,40.0,31.0,26.91,West,270,5.0,6.0,68,0.00,,,0.00,Rainwise IP-100,2013-02-16 22:29:00,
2013-02-16 15:34:00,40.0,31.0,26.91,NNE,22,3.0,6.0,69,0.00,,,0.00,Rainwise IP-100,2013-02-16 22:34:00,
2013-02-16 15:39:00,40.0,32.0,26.91,NW,315,5.0,5.0,71,0.00,,,0.00,Rainwise IP-100,2013-02-16 22:39:00,
2013-02-16 15:44:00,40.0,32.0,26.90,West,270,8.0,8.0,71,0.00,,,0.00,Rainwise IP-100,2013-02-16 22:44:00,
2013-02-16 15:49:00,39.0,32.0,26.90,NNW,337,3.0,9.0,73,0.00,,,0.00,Rainwise IP-100,2013-02-16 22:49:00,
2013-02-16 15:54:00,39.0,32.0,26.91,NNW,337,4.0,7.0,73,0.00,,,0.00,Rainwise IP-100,2013-02-16 22:54:00,
2013-02-16 15:59:00,39.0,32.0,26.91,SE,135,0.0,6.0,73,0.00,,,0.00,Rainwise IP-100,2013-02-16 22:59:00,
2013-02-16 16:04:00,39.0,32.0,26.91,NNE,22,2.0,6.0,74,0.00,,,0.00,Rainwise IP-100,2013-02-16 23:04:00,
2013-02-16 16:09:00,39.0,32.0,26.91,NE,45,5.0,5.0,73,0.00,,,0.00,Rainwise IP-100,2013-02-16 23:09:00,
2013-02-16 16:14:00,40.0,32.0,26.89,WSW,247,2.0,5.0,73,0.00,,,0.00,Rainwise IP-100,2013-02-16 23:14:00,
2013-02-16 16:19:00,40.0,32.0,26.89,NNW,337,0.0,3.0,73,0.00,,,0.00,Rainwise IP-100,2013-02-16 23:19:00,
2013-02-16 16:24:00,41.0,32.0,26.87,NW,315,0.0,4.0,70,0.00,,,0.00,Rainwise IP-100,2013-02-16 23:24:00,
2013-02-16 16:29:00,41.0,32.0,26.87,NW,315,3.0,4.0,70,0.00,,,0.00,Rainwise IP-100,2013-02-16 23:29:00,
2013-02-16 16:34:00,41.0,32.0,26.86,WNW,292,1.0,5.0,70,0.00,,,0.00,Rainwise IP-100,2013-02-16 23:34:00,
2013-02-16 16:39:00,41.0,32.0,26.86,WSW,247,1.0,3.0,69,0.00,,,0.00,Rainwise IP-100,2013-02-16 23:39:00,
2013-02-16 16:44:00,41.0,32.0,26.86,WSW,247,0.0,2.0,69,0.00,,,0.00,Rainwise IP-100,2013-02-16 23:44:00,
2013-02-16 16:49:00,41.0,32.0,26.86,WSW,247,0.0,3.0,69,0.00,,,0.00,Rainwise IP-100,2013-02-16 23:49:00,
2013-02-16 16:54:00,41.0,32.0,26.86,WNW,292,1.0,4.0,69,0.00,,,0.00,Rainwise IP-100,2013-02-16 23:54:00,
2013-02-16 16:59:00,41.0,32.0,26.86,WNW,292,0.0,4.0,69,0.00,,,0.00,Rainwise IP-100,2013-02-16 23:59:00,
2013-02-16 17:04:00,41.0,32.0,26.85,WNW,292,3.0,4.0,70,0.00,,,0.00,Rainwise IP-100,2013-02-17 00:04:00,
2013-02-16 17:09:00,40.0,32.0,26.85,NNE,22,2.0,4.0,70,0.00,,,0.00,Rainwise IP-100,2013-02-17 00:09:00,
2013-02-16 17:14:00,40.0,32.0,26.85,NW,315,0.0,4.0,70,0.00,,,0.00,Rainwise IP-100,2013-02-17 00:14:00,
2013-02-16 17:19:00,40.0,32.0,26.85,NW,315,0.0,5.0,71,0.00,,,0.00,Rainwise IP-100,2013-02-17 00:19:00,
2013-02-16 17:24:00,40.0,32.0,26.85,NW,315,0.0,0.0,71,0.00,,,0.00,Rainwise IP-100,2013-02-17 00:24:00,
2013-02-16 17:29:00,40.0,32.0,26.85,NW,315,1.0,3.0,71,0.00,,,0.00,Rainwise IP-100,2013-02-17 00:29:00,
2013-02-16 17:34:00,40.0,32.0,26.84,WSW,247,1.0,3.0,71,0.00,,,0.00,Rainwise IP-100,2013-02-17 00:34:00,
2013-02-16 17:39:00,40.0,32.0,26.84,North,360,4.0,4.0,73,0.00,,,0.00,Rainwise IP-100,2013-02-17 00:39:00,
2013-02-16 17:44:00,39.0,32.0,26.84,North,360,0.0,5.0,73,0.00,,,0.00,Rainwise IP-100,2013-02-17 00:44:00,
2013-02-16 17:49:00,39.0,32.0,26.84,North,360,0.0,0.0,73,0.00,,,0.00,Rainwise IP-100,2013-02-17 00:49:00,
2013-02-16 17:54:00,39.0,32.0,26.84,North,360,0.0,4.0,73,0.00,,,0.00,Rainwise IP-100,2013-02-17 00:54:00,
2013-02-16 17:59:00,39.0,32.0,26.84,WNW,292,0.0,2.0,75,0.00,,,0.00,Rainwise IP-100,2013-02-17 00:59:00,
2013-02-16 18:04:00,39.0,32.0,26.83,WNW,292,0.0,0.0,74,0.00,,,0.00,Rainwise IP-100,2013-02-17 01:04:00,
2013-02-16 18:09:00,39.0,32.0,26.83,WNW,292,0.0,0.0,75,0.00,,,0.00,Rainwise IP-100,2013-02-17 01:09:00,
2013-02-16 18:14:00,38.0,31.0,26.83,WNW,292,0.0,0.0,75,0.00,,,0.00,Rainwise IP-100,2013-02-17 01:14:00,
2013-02-16 18:19:00,38.0,31.0,26.83,WNW,292,0.0,0.0,76,0.00,,,0.00,Rainwise IP-100,2013-02-17 01:19:00,
2013-02-16 18:24:00,38.0,32.0,26.83,NNE,22,2.0,2.0,77,0.00,,,0.00,Rainwise IP-100,2013-02-17 01:24:00,
2013-02-16 18:29:00,38.0,32.0,26.83,ENE,67,0.0,4.0,78,0.00,,,0.00,Rainwise IP-100,2013-02-17 01:29:00,
2013-02-16 18:34:00,38.0,32.0,26.82,ENE,67,0.0,0.0,77,0.00,,,0.00,Rainwise IP-100,2013-02-17 01:34:00,
2013-02-16 18:39:00,37.0,31.0,26.82,ENE,67,0.0,0.0,79,0.00,,,0.00,Rainwise IP-100,2013-02-17 01:39:00,
2013-02-16 18:44:00,37.0,32.0,26.81,East,90,1.0,2.0,81,0.00,,,0.00,Rainwise IP-100,2013-02-17 01:44:00,
2013-02-16 18:49:00,37.0,32.0,26.81,East,90,1.0,3.0,81,0.00,,,0.00,Rainwise IP-100,2013-02-17 01:49:00,
2013-02-16 18:54:00,37.0,32.0,26.81,WNW,292,3.0,4.0,80,0.00,,,0.00,Rainwise IP-100,2013-02-17 01:54:00,
2013-02-16 18:59:00,37.0,32.0,26.81,West,270,0.0,4.0,81,0.00,,,0.00,Rainwise IP-100,2013-02-17 01:59:00,
2013-02-16 19:04:00,37.0,32.0,26.80,West,270,0.0,0.0,81,0.00,,,0.00,Rainwise IP-100,2013-02-17 02:04:00,
2013-02-16 19:09:00,37.0,32.0,26.80,West,270,7.0,7.0,81,0.00,,,0.00,Rainwise IP-100,2013-02-17 02:09:00,
2013-02-16 19:14:00,37.0,32.0,26.80,WSW,247,3.0,8.0,81,0.00,,,0.00,Rainwise IP-100,2013-02-17 02:14:00,
2013-02-16 19:19:00,37.0,32.0,26.80,WNW,292,2.0,6.0,81,0.00,,,0.00,Rainwise IP-100,2013-02-17 02:19:00,
2013-02-16 19:24:00,37.0,32.0,26.79,NW,315,0.0,3.0,81,0.00,,,0.00,Rainwise IP-100,2013-02-17 02:24:00,
2013-02-16 19:29:00,37.0,32.0,26.79,NW,315,0.0,1.0,81,0.00,,,0.00,Rainwise IP-100,2013-02-17 02:29:00,
2013-02-16 19:34:00,37.0,32.0,26.79,ESE,112,3.0,5.0,81,0.00,,,0.00,Rainwise IP-100,2013-02-17 02:34:00,
2013-02-16 19:39:00,38.0,32.0,26.79,SE,135,2.0,6.0,80,0.00,,,0.00,Rainwise IP-100,2013-02-17 02:39:00,
2013-02-16 19:44:00,38.0,32.0,26.78,WNW,292,2.0,4.0,80,0.00,,,0.00,Rainwise IP-100,2013-02-17 02:44:00,
2013-02-16 19:49:00,38.0,32.0,26.78,West,270,1.0,6.0,80,0.00,,,0.00,Rainwise IP-100,2013-02-17 02:49:00,
2013-02-16 19:54:00,37.0,32.0,26.79,WNW,292,8.0,10.0,81,0.00,,,0.00,Rainwise IP-100,2013-02-17 02:54:00,
2013-02-16 19:59:00,37.0,32.0,26.79,West,270,10.0,12.0,82,0.00,,,0.00,Rainwise IP-100,2013-02-17 02:59:00,
2013-02-16 20:04:00,38.0,36.0,26.81,WNW,292,7.0,17.0,90,0.06,,,0.01,Rainwise IP-100,2013-02-17 03:04:00,
2013-02-16 20:09:00,38.0,35.0,26.81,WNW,292,9.0,17.0,88,0.12,,,0.02,Rainwise IP-100,2013-02-17 03:09:00,
2013-02-16 20:14:00,38.0,35.0,26.82,WSW,247,1.0,12.0,87,0.06,,,0.02,Rainwise IP-100,2013-02-17 03:14:00,
2013-02-16 20:19:00,38.0,35.0,26.82,South,180,3.0,4.0,88,0.00,,,0.02,Rainwise IP-100,2013-02-17 03:19:00,
2013-02-16 20:24:00,38.0,36.0,26.82,WNW,292,3.0,9.0,90,0.00,,,0.02,Rainwise IP-100,2013-02-17 03:24:00,
2013-02-16 20:29:00,39.0,36.0,26.82,SSE,157,2.0,11.0,86,0.00,,,0.02,Rainwise IP-100,2013-02-17 03:29:00,
2013-02-16 20:34:00,39.0,35.0,26.82,WNW,292,4.0,7.0,85,0.00,,,0.02,Rainwise IP-100,2013-02-17 03:34:00,
2013-02-16 20:39:00,39.0,35.0,26.82,WSW,247,2.0,6.0,83,0.00,,,0.02,Rainwise IP-100,2013-02-17 03:39:00,
2013-02-16 20:44:00,39.0,33.0,26.81,SE,135,2.0,6.0,81,0.00,,,0.02,Rainwise IP-100,2013-02-17 03:44:00,
2013-02-16 20:49:00,40.0,35.0,26.81,SE,135,5.0,6.0,80,0.00,,,0.02,Rainwise IP-100,2013-02-17 03:49:00,
2013-02-16 20:54:00,40.0,35.0,26.80,ENE,67,5.0,6.0,78,0.00,,,0.02,Rainwise IP-100,2013-02-17 03:54:00,
2013-02-16 20:59:00,40.0,35.0,26.80,NNW,337,5.0,8.0,79,0.00,,,0.02,Rainwise IP-100,2013-02-17 03:59:00,
2013-02-16 21:04:00,39.0,33.0,26.80,ESE,112,2.0,6.0,78,0.00,,,0.02,Rainwise IP-100,2013-02-17 04:04:00,
2013-02-16 21:09:00,40.0,33.0,26.80,NNE,22,5.0,8.0,75,0.00,,,0.02,Rainwise IP-100,2013-02-17 04:09:00,
2013-02-16 21:14:00,40.0,33.0,26.80,SW,225,2.0,5.0,75,0.00,,,0.02,Rainwise IP-100,2013-02-17 04:14:00,
2013-02-16 21:19:00,40.0,33.0,26.80,NE,45,2.0,4.0,75,0.00,,,0.02,Rainwise IP-100,2013-02-17 04:19:00,
2013-02-16 21:24:00,40.0,33.0,26.80,NE,45,5.0,7.0,75,0.00,,,0.02,Rainwise IP-100,2013-02-17 04:24:00,
2013-02-16 21:29:00,40.0,33.0,26.80,NW,315,3.0,6.0,76,0.00,,,0.02,Rainwise IP-100,2013-02-17 04:29:00,
2013-02-16 21:34:00,40.0,33.0,26.81,WNW,292,4.0,9.0,74,0.00,,,0.02,Rainwise IP-100,2013-02-17 04:34:00,
2013-02-16 21:39:00,40.0,32.0,26.81,NW,315,7.0,7.0,71,0.00,,,0.02,Rainwise IP-100,2013-02-17 04:39:00,
2013-02-16 21:44:00,41.0,32.0,26.81,WNW,292,4.0,11.0,70,0.00,,,0.02,Rainwise IP-100,2013-02-17 04:44:00,
2013-02-16 21:49:00,41.0,31.0,26.81,WSW,247,8.0,15.0,67,0.00,,,0.02,Rainwise IP-100,2013-02-17 04:49:00,
2013-02-16 21:54:00,41.0,32.0,26.81,WSW,247,7.0,15.0,70,0.00,,,0.02,Rainwise IP-100,2013-02-17 04:54:00,
2013-02-16 21:59:00,40.0,33.0,26.81,WNW,292,5.0,15.0,77,0.00,,,0.02,Rainwise IP-100,2013-02-17 04:59:00,
2013-02-16 22:00:00,40.0,33.0,26.81,NW,315,7.0,15.0,77,0.00,,,0.02,Rainwise IP-100,2013-02-17 05:00:00,
2013-02-16 22:05:00,38.0,33.0,26.82,West,270,6.0,14.0,84,0.00,,,0.02,Rainwise IP-100,2013-02-17 05:05:00,
2013-02-16 22:10:00,37.0,33.0,26.82,West,270,7.0,15.0,88,0.00,,,0.02,Rainwise IP-100,2013-02-17 05:10:00,
2013-02-16 22:15:00,37.0,35.0,26.84,NNW,337,6.0,11.0,90,0.00,,,0.02,Rainwise IP-100,2013-02-17 05:15:00,
2013-02-16 22:20:00,36.0,33.0,26.84,WNW,292,7.0,12.0,90,0.00,,,0.02,Rainwise IP-100,2013-02-17 05:20:00,
2013-02-16 22:25:00,36.0,33.0,26.85,NNW,337,6.0,10.0,91,0.00,,,0.02,Rainwise IP-100,2013-02-17 05:25:00,
2013-02-16 22:30:00,36.0,33.0,26.85,West,270,7.0,10.0,92,0.00,,,0.02,Rainwise IP-100,2013-02-17 05:30:00,
2013-02-16 22:35:00,36.0,33.0,26.85,WNW,292,4.0,8.0,92,0.00,,,0.02,Rainwise IP-100,2013-02-17 05:35:00,
2013-02-16 22:40:00,36.0,33.0,26.85,WNW,292,1.0,6.0,91,0.00,,,0.02,Rainwise IP-100,2013-02-17 05:40:00,
2013-02-16 22:45:00,36.0,33.0,26.85,West,270,2.0,7.0,91,0.00,,,0.02,Rainwise IP-100,2013-02-17 05:45:00,
2013-02-16 22:50:00,36.0,33.0,26.85,SW,225,0.0,6.0,91,0.00,,,0.02,Rainwise IP-100,2013-02-17 05:50:00,
2013-02-16 22:55:00,36.0,33.0,26.85,WNW,292,4.0,6.0,90,0.00,,,0.02,Rainwise IP-100,2013-02-17 05:55:00,
2013-02-16 23:00:00,36.0,33.0,26.85,NW,315,5.0,8.0,90,0.00,,,0.02,Rainwise IP-100,2013-02-17 06:00:00,
2013-02-16 23:05:00,36.0,33.0,26.85,NNW,337,4.0,7.0,90,0.00,,,0.02,Rainwise IP-100,2013-02-17 06:05:00,
2013-02-16 23:10:00,36.0,33.0,26.85,NW,315,1.0,7.0,90,0.00,,,0.02,Rainwise IP-100,2013-02-17 06:10:00,
2013-02-16 23:15:00,36.0,33.0,26.84,SW,225,0.0,4.0,90,0.06,,,0.03,Rainwise IP-100,2013-02-17 06:15:00,
2013-02-16 23:20:00,36.0,33.0,26.84,SW,225,0.0,2.0,91,0.06,,,0.03,Rainwise IP-100,2013-02-17 06:20:00,
2013-02-16 23:25:00,36.0,33.0,26.84,SW,225,0.0,0.0,91,0.00,,,0.03,Rainwise IP-100,2013-02-17 06:25:00,
2013-02-16 23:30:00,35.0,32.0,26.84,SW,225,0.0,0.0,91,0.00,,,0.03,Rainwise IP-100,2013-02-17 06:30:00,
2013-02-16 23:35:00,35.0,32.0,26.83,SSW,202,0.0,3.0,92,0.06,,,0.04,Rainwise IP-100,2013-02-17 06:35:00,
2013-02-16 23:40:00,35.0,32.0,26.83,SSW,202,2.0,4.0,92,0.06,,,0.04,Rainwise IP-100,2013-02-17 06:40:00,
2013-02-16 23:45:00,35.0,33.0,26.84,South,180,0.0,4.0,93,0.00,,,0.04,Rainwise IP-100,2013-02-17 06:45:00,
2013-02-16 23:50:00,35.0,33.0,26.84,South,180,4.0,4.0,93,0.06,,,0.05,Rainwise IP-100,2013-02-17 06:50:00,
2013-02-16 23:55:00,35.0,33.0,26.85,South,180,0.0,4.0,94,0.06,,,0.05,Rainwise IP-100,2013-02-17 06:55:00,